Weather History for Wellsville, NY

Change the Weather History Date:

Thursday, February 21, 2013

  Actual Average (KBFD) Record (KBFD)
Temperature  
Mean Temperature 17 °F 25 °F  
Max Temperature 19 °F 34 °F 64 °F (1997)
Min Temperature 15 °F 15 °F -8 °F (1968)
Degree Days  
Heating Degree Days 48 35  
Month to date heating degree days 765  
Since 1 July heating degree days 5176  
Cooling Degree Days 0 0  
Month to date cooling degree days 0  
Year to date cooling degree days 0  
Moisture  
Dew Point 9 °F    
Average Humidity 73    
Maximum Humidity 88    
Minimum Humidity 63    
Precipitation  
Precipitation 0.00 in 0.08 in 1.04 in (1989)
Month to date precipitation 1.73  
Year to date precipitation 5.02  
Sea Level Pressure  
Sea Level Pressure 30.16 in    
Wind  
Wind Speed 17 mph (NW)    
Max Wind Speed 23 mph    
Max Gust Speed 36 mph    
Visibility 6 miles    
Events Snow    
T = Trace of Precipitation, MM = Missing Value Source: NWS Daily Summary

Daily Weather History Graph

Daily Weather History Graph

Search for Another Location

Airport:

Trip Planner

Search our weather history database for the weather conditions in past years. The results will help you decide how hot, cold, wet, or windy it might be!

Date:

Astronomy

Feb. 21, 2013 Rise Set
Actual Time 6:59 AM EST 5:52 PM EST
Civil Twilight 6:30 AM EST 6:20 PM EST
Nautical Twilight 5:58 AM EST 6:53 PM EST
Astronomical Twilight 5:25 AM EST 7:25 PM EST
Moon 2:02 PM EST (2/21) 4:05 AM EST (2/21)
Length of Visible Light 11h 50m
Length of Day
10h 53m
Waxing Gibbous, 83% of the Moon is Illuminated
Feb 21
Waxing Gibbous
Feb 25
Full
Mar 4
Last Quarter
Mar 11
New
Mar 19
First Quarter

Hourly Weather History & Observations

Time (EST) Temp. Windchill Dew Point Humidity Pressure Visibility Wind Dir Wind Speed Gust Speed Precip Events Conditions
12:56 AM 15.1 °F -2.0 °F 8.1 °F 74% 30.07 in 2.5 mi WNW 19.6 mph 32.2 mph 0.00 in Snow Light Snow
1:08 AM 15.8 °F -0.6 °F 8.6 °F 73% 29.95 in 4.0 mi WNW 18.4 mph 28.8 mph 0.00 in Snow Light Snow
2:56 AM 15.1 °F -2.0 °F 8.1 °F 74% 30.06 in 4.0 mi WNW 19.6 mph 28.8 mph 0.00 in Snow Light Snow
3:56 AM 15.1 °F -0.6 °F 8.1 °F 74% 30.06 in 7.0 mi WNW 16.1 mph - 0.00 in Snow Light Snow
4:56 AM 15.1 °F -0.6 °F 9.0 °F 77% 30.07 in 3.0 mi WNW 16.1 mph 23.0 mph 0.00 in Snow Light Snow
5:56 AM 15.1 °F -3.3 °F 8.1 °F 74% 30.11 in 2.5 mi NW 23.0 mph 32.2 mph 0.00 in Snow Light Snow
6:21 AM 15.8 °F -1.1 °F 8.6 °F 73% 29.99 in 4.0 mi NW 19.6 mph 27.6 mph 0.00 in Snow Light Snow
6:56 AM 15.1 °F -1.1 °F 8.1 °F 74% 30.13 in 4.0 mi NW 17.3 mph - 0.00 in Snow Light Snow
7:24 AM 15.8 °F -0.2 °F 8.6 °F 73% 30.01 in 2.5 mi NW 17.3 mph 25.3 mph 0.00 in Snow Light Snow
7:42 AM 15.8 °F 0.3 °F 8.6 °F 73% 30.03 in 2.0 mi NW 16.1 mph - 0.00 in Snow Light Snow
7:56 AM 15.1 °F -2.5 °F 8.1 °F 74% 30.16 in 2.0 mi NW 20.7 mph 31.1 mph 0.00 in Snow Light Snow
8:12 AM 15.8 °F -1.5 °F 8.6 °F 73% 30.04 in 3.0 mi NW 20.7 mph 27.6 mph 0.00 in Snow Light Snow
8:15 AM 15.8 °F -2.3 °F 8.6 °F 73% 30.04 in 1.8 mi NW 23.0 mph 29.9 mph 0.00 in Snow Light Snow
8:53 AM 15.8 °F -0.2 °F 8.6 °F 73% 30.05 in 2.0 mi NW 17.3 mph 28.8 mph 0.00 in Snow Light Snow
8:56 AM 15.1 °F -2.0 °F 8.1 °F 74% 30.18 in 2.5 mi NW 19.6 mph 28.8 mph 0.00 in Snow Light Snow
8:59 AM 15.8 °F -1.9 °F 8.6 °F 73% 30.06 in 3.0 mi NW 21.9 mph 28.8 mph 0.00 in Snow Light Snow
9:17 AM 15.8 °F -1.9 °F 8.6 °F 73% 30.06 in 1.8 mi NW 21.9 mph 34.5 mph 0.00 in Snow Light Snow
9:32 AM 15.8 °F -1.1 °F 8.6 °F 73% 30.07 in 2.5 mi NW 19.6 mph 27.6 mph 0.00 in Snow Light Snow
9:56 AM 15.1 °F -3.3 °F 8.1 °F 74% 30.20 in 1.5 mi NW 23.0 mph 35.7 mph 0.00 in Snow Light Snow
10:07 AM 15.8 °F -1.5 °F 8.6 °F 73% 30.09 in 2.0 mi NW 20.7 mph 33.4 mph 0.00 in Snow Light Snow
10:31 AM 15.8 °F -0.6 °F 6.8 °F 68% 30.09 in 5.0 mi WNW 18.4 mph 32.2 mph 0.00 in Snow Light Snow
10:52 AM 17.6 °F 4.3 °F 8.6 °F 68% 30.10 in 8.0 mi NW 12.7 mph 21.9 mph 0.00 in Snow Light Snow
10:56 AM 17.1 °F 3.0 °F 8.1 °F 68% 30.22 in 8.0 mi NW 13.8 mph - 0.00 in Snow Light Snow
11:56 AM 19.0 °F 4.0 °F 9.0 °F 65% 30.21 in 10.0 mi NW 17.3 mph 23.0 mph 0.00 in   Mostly Cloudy
12:03 PM 17.6 °F 1.7 °F 8.6 °F 68% 30.09 in 10.0 mi NW 18.4 mph 26.5 mph N/A   Scattered Clouds
12:12 PM 19.4 °F 5.0 °F 8.6 °F 63% 30.09 in 10.0 mi NW 16.1 mph - N/A   Mostly Cloudy
12:19 PM 19.4 °F 4.1 °F 8.6 °F 63% 30.10 in 10.0 mi WNW 18.4 mph 23.0 mph N/A   Scattered Clouds
12:37 PM 17.6 °F 3.2 °F 8.6 °F 68% 30.11 in 10.0 mi WNW 15.0 mph 21.9 mph N/A   Mostly Cloudy
1:56 PM 19.0 °F 9.0 °F 10.0 °F 68% 30.23 in 10.0 mi NW 8.1 mph 19.6 mph N/A   Overcast
2:56 PM 19.9 °F 7.3 °F 10.0 °F 65% 30.25 in 10.0 mi NW 12.7 mph 20.7 mph N/A   Overcast
3:56 PM 19.9 °F 7.3 °F 10.9 °F 68% 30.27 in 10.0 mi NW 12.7 mph - N/A   Overcast
4:56 PM 18.0 °F 6.1 °F 10.0 °F 71% 30.29 in 10.0 mi NNW 10.4 mph - N/A   Overcast
5:56 PM 18.0 °F 6.9 °F 10.0 °F 71% 30.31 in 10.0 mi NNW 9.2 mph - N/A   Overcast
6:56 PM 17.1 °F 6.6 °F 10.0 °F 74% 30.37 in 10.0 mi NNW 8.1 mph - N/A   Overcast
7:56 PM 16.0 °F 5.3 °F 10.0 °F 77% 30.40 in 10.0 mi NW 8.1 mph - N/A   Overcast
8:56 PM 16.0 °F 5.3 °F 10.9 °F 81% 30.38 in 10.0 mi NNE 8.1 mph - N/A   Overcast
9:56 PM 15.1 °F 7.7 °F 10.9 °F 84% 30.39 in 10.0 mi NNE 4.6 mph - N/A   Overcast
10:56 PM 15.1 °F 5.2 °F 10.9 °F 84% 30.39 in 10.0 mi NE 6.9 mph - N/A   Overcast
11:56 PM 15.1 °F 5.2 °F 12.0 °F 88% 30.37 in 9.0 mi East 6.9 mph - N/A   Overcast